COSMOS 736

Satellite information

Favourite Embed

Satellite Type and Status

PAYLOADIN ORBIT

Key statistics

Satellite COSMOS 736 at a glance.

Uptime

18304

Days in orbit

Revolutions

≈ 12.5

Per day

Orbit

LEO

Low Earth Orbit

Inclination

74.0

Latest

Satellite identification and parameters

Extended collection of information and parameters for COSMOS 736.

Object identification

Identified? True

Debris? False

Object name: COSMOS 736

International designator: 1975-045E

Object number (NORAD): 7825

Object ID (CCSDS): 7825

Country: COMMONWEALTH OF INDEPENDENT STATES (CIS)

Current information (Y/N): Y

RCS size: MEDIUM

Orbital parameters

Period: 115.488 minutes

Inclination: 74.015 deg

SMA: 7855.697 km

Apoapsis: 1486.446 km

Periapsis: 1468.678 km

RAAN: 185.3179 deg

Eccentricy: 0.0011309

Argument of periapsis: 284.6367 deg

Mean anomaly: 101.5679 deg

Mean motion: 12.46882859 rev/day

Mean motion (dot): 0.00000002 rev/day2

B* drag term: 0.0001237 1/REarth

Two-line elements (TLE)

Creation date: July 8, 2025, 2:27 a.m.

Reference frame: TEME

Reference center: EARTH

Epoch: July 7, 2025, 11 p.m. UTC

TLE line 0: 0 COSMOS 736

TLE line 1: 1 07825U 75045E 25188.95874326 .00000002 00000-0 12370-3 0 9999

TLE line 2: 2 07825 74.0150 185.3179 0011309 284.6367 101.5679 12.46882859281031

Live tracking on map

Real-time ground track for satellite COSMOS 736.

In-orbit conjunctions

A list of the most updated potential collisions computed for object COSMOS 736.

Target Orbit TCA Probability of collision Miss distance Type
DELTA 1 DEB MEO 2025-04-12 13:41:45 0.0003651173 356.0 (m) DEBRIS
COSMOS 1723 LEO 2024-09-22 22:59:34 0.0001715331 117.0 (m) PAYLOAD
SL-14 R/B LEO 2024-08-11 12:23:51 0.000102135 85.0 (m) ROCKET BODY
COSMOS 1057 LEO 2024-06-06 17:10:46 0.02241838 51.0 (m) PAYLOAD

Associated space launch

Military communications satellites

COSMOS 736 was lifted into orbit during the mission ‘Kosmos-3M | Strela-1M 89-96’, on board a Kosmos-3M space rocket.

The launch took place on May 28, 1975, 12:25 a.m. from 132/1 (132L).

For more information about the launch, click the button.

Launch to space Kosmos-3M | Strela-1M 89-96
Kosmos-3M | Strela-1M 89-96

Agency: N/A

Status: Launch Successful

Launch date: May 28, 1975, 12:25 a.m. UTC

Rocket: Kosmos-3M

Launch pad: 132/1 (132L)

Location: Plesetsk Cosmodrome, Russian Federation

...

Latest news about this satellite

There are no fresh news available about this satellite. Check back as we update our databases every day.


Newsletter sign-up

Weekly statistics, charts and insights to help you stay on top of the space industry.